Probability
0 0 0 0 0 0 0 0 0 0 0 0 0 0 0 0 0 0 0 0 0 0 0 0 0 0 0 0 0 0 0 0 0 0 0 0 0 0 0 0 0 0 0
0 0 0 0 0 0 0 0 0 0 0 0 0 0 0 0 0 0 0 0 0 0 0 0 0 0 0 0 0 0 0 0 0 0 0 0 0 0 0 0 0 0 0
0 0 0 0 0 0 0 0 0 0 0 0 0 0 0 0 0 0 0 0 0 0 0 0 0 0 0 0 0 0 0 0 0 0 0 0 0 0 0 0 0 0 0
0 0 0 0 0 0 0 0 0 0 0 0 0 0 0 0 0 0 0 0 0 0 0 0 0 0 0 0 0 0 0 0 0 0 0 0 0 0 0 0 0 0 0
0 0 0 0 0 0 0 0 0 0 0 0 0 0 0 0 0 0 0 0 0 0 0 0 0 0 0 0 0 0 0 0 0 0 0 0 0 0 0 0 0 0 0
0 0 0 0 0 0 0 0 0 0 0 0 0 0 0 0 0 0 0 0 0 0 0 0 0 0 0 0 0 0 0 0 0 0 0 0 0 0 0 0 0 0 0
0 0 0 0 0 0 0 0 0 0 0 0 0 0 0 0 0 0 0 0 0 0 0 0 0 0 0 0 0 0 0 0 0 0 0 0 0 0 0 0 0 0 0
0 0 0 0 0 0 0 0 0 0 0 0 0 0 0 0 0 0 0 0 0 0 0 0 0 0 0 0 0 0 0 0 0 0 0 0 0 0 0 0 0 0 0
0 0 0 0 0 0 0 0 0 0 0 0 0 0 0 0 0 0 0 0 0 0 0 0 0 0 0 0 0 0 0 0 0 0 0 0 0 0 0 0 0 0 0
0 0 0 0 0 0 0 0 0 0 0 0 0 0 0 0 0 0 0 0 0 0 0 0 0 0 0 0 0 0 0 0 0 0 0 0 0 0 0 0 0 0 0
0 0 0 0 0 0 0 0 0 0 0 0 0 0 0 0 0 0 0 0 0 0 0 0 0 0 0 0 0 0 0 0 0 0 0 0 0 0 0 0 0 0 0
0 0 0 0 0 0 0 0 0 0 0 0 0 0 0 0 0 0 0 0 0 0 0 0 0 0 0 0 0 0 0 0 0 0 0 0 0 0 0 0 0 0 0
0 0 0 0 0 0 0 0 0 0 0 0 0 0 0 0 0 0 0 0 0 0 0 0 0 0 0 0 0 0 0 0 0 0 0 0 0 0 0 0 0 0 0
0 0 0 0 0 0 0 0 0 0 0 0 0 0 0 0 0 0 0 0 0 0 0 0 0 0 0 0 0 0 0 0 0 0 0 0 0 0 0 0 0 0 0
0 0 0 0 0 0 0 0 0 0 0 0 0 0 0 0 0 0 0 0 0 0 0 0 0 0 0 0 0 0 0 0 0 0 0 0 0 0 0 0 0 0 0
0 0 0 0 0 0 0 0 0 0 0 0 0 0 0 0 0 0 0 0 0 0 0 0 0 0 0 0 0 0 0 0 0 0 0 0 0 0 0 0 0 0 0
0 0 0 0 0 0 0 0 0 0 0 0 0 0 0 0 0 0 0 0 0 0 0 0 0 0 0 0 0 0 0 0 0 0 0 0 0 0 0 0 0 0 0
0 0 0 0 0 0 0 0 0 0 0 0 0 0 0 0 0 0 0 0 0 0 0 0 0 0 0 0 0 0 0 0 0 0 0 0 0 0 0 0 0 0 0
0 0 0 0 0 0 0 0 0 0 0 0 0 0 0 0 0 0 0 0 0 0 0 0 0 0 0 0 0 0 0 0 0 0 0 0 0 0 0 0 0 0 0
0 0 0 0 0 0 0 0 0 0 0 0 0 0 0 0 0 0 0 0 0 0 0 0 0 0 0 0 0 0 0 0 0 0 0 0 0 0 0 0 0 0 0
0 0 0 0 0 0 0 0 0 0 0 0 0 0 0 0 0 0 0 0 0 0 0 0 0 0 0 0 0 0 0 0 0 0 0 0 0 0 0 0 0 0 0
0 0 0 0 0 0 0 0 0 0 0 0 0 0 0 0 0 0 0 0 0 0 0 0 0 0 0 0 0 0 0 0 0 0 0 0 0 0 0 0 0 0 0
0 0 0 0 0 0 0 0 0 0 0 0 0 0 0 0 0 0 0 0 0 0 0 0 0 0 0 0 0 0 0 0 0 0 0 0 0 0 0 0 0 0 0
0 0 0 0 0 0 0 0 0 0 0 0 0 0 0 0 0 0 0 0 0 0 0 0 0 0 0 0 0 0 0 0 0 0 0 0 0 0 0 0 0 0 0
0 0 0 0 0 0 0 0 0 0 0 0 0 0 0 0 0 0 0 0 0 0 0 0 0 0 0 0 0 0 0 0 0 0 0 0 0 0 0 0 0 0 0
0 0 0 0 0 0 0 0 0 0 0 0 0 0 0 0 0 0 0 0 0 0 0 0 0 0 0 0 0 0 0 0 0 0 0 0 0 0 0 0 0 0 0
Height
5721 5724 5727 5730 5733 5735 5737 5739 5741 5742 5743 5744 5745 5745 5745 5746 5746 5745 5745 5744 5743 5742 5741 5740 5739 5737 5735 5733 5731 5730 5728 5726 5724 5723 5720 5718 5716 5714 5712 5710 5708 5706 5704
5711 5714 5717 5719 5722 5724 5726 5728 5729 5731 5732 5732 5733 5733 5733 5734 5734 5733 5733 5732 5731 5730 5729 5728 5727 5725 5723 5721 5720 5718 5716 5714 5713 5711 5709 5707 5706 5704 5702 5700 5698 5696 5695
5701 5704 5706 5709 5711 5713 5715 5717 5718 5719 5720 5721 5721 5721 5722 5722 5722 5721 5721 5720 5719 5718 5717 5716 5714 5713 5712 5710 5708 5707 5705 5703 5701 5700 5698 5697 5695 5693 5692 5691 5689 5687 5686
5691 5694 5696 5698 5700 5702 5704 5705 5707 5708 5709 5709 5710 5710 5710 5710 5710 5709 5708 5707 5707 5705 5704 5703 5702 5701 5700 5698 5697 5695 5693 5691 5690 5689 5687 5686 5684 5683 5682 5681 5679 5678 5677
5681 5684 5686 5688 5690 5692 5693 5695 5696 5697 5698 5698 5698 5698 5698 5698 5698 5697 5696 5695 5695 5694 5693 5691 5690 5689 5688 5686 5685 5683 5682 5680 5679 5678 5676 5675 5674 5673 5672 5671 5670 5669 5668
5671 5674 5676 5678 5680 5682 5683 5684 5685 5686 5687 5687 5687 5687 5686 5686 5686 5685 5684 5684 5683 5682 5681 5679 5678 5677 5676 5674 5673 5672 5670 5669 5668 5667 5666 5665 5664 5663 5662 5661 5661 5660 5659
5662 5664 5666 5668 5670 5671 5673 5674 5675 5675 5676 5676 5676 5676 5675 5675 5674 5673 5673 5672 5671 5670 5669 5668 5666 5665 5664 5663 5661 5660 5659 5658 5657 5657 5656 5655 5654 5653 5652 5652 5651 5650 5650
5652 5655 5657 5658 5660 5661 5662 5663 5664 5665 5665 5665 5665 5665 5664 5664 5663 5662 5662 5661 5659 5658 5657 5656 5655 5654 5653 5651 5650 5649 5648 5647 5647 5646 5645 5645 5644 5643 5643 5642 5642 5641 5640
5643 5645 5647 5649 5650 5651 5653 5654 5654 5655 5655 5655 5655 5654 5654 5653 5652 5652 5650 5649 5648 5646 5645 5644 5643 5643 5642 5640 5640 5639 5638 5637 5636 5636 5635 5634 5634 5633 5633 5633 5632 5632 5631
5633 5636 5637 5639 5640 5641 5643 5643 5644 5644 5645 5644 5644 5644 5643 5642 5642 5640 5639 5638 5637 5635 5634 5633 5632 5631 5630 5629 5629 5628 5628 5627 5626 5626 5625 5625 5624 5624 5623 5623 5623 5622 5622
5624 5626 5628 5629 5630 5632 5633 5633 5634 5634 5634 5634 5634 5633 5632 5632 5631 5630 5628 5627 5626 5625 5623 5622 5621 5620 5619 5619 5618 5618 5617 5617 5616 5616 5615 5615 5615 5614 5614 5614 5613 5613 5613
5614 5616 5618 5619 5620 5622 5622 5623 5624 5624 5624 5624 5623 5623 5622 5621 5620 5619 5618 5617 5615 5614 5613 5612 5611 5610 5609 5608 5608 5608 5607 5607 5607 5606 5606 5606 5605 5605 5605 5605 5604 5604 5603
5605 5606 5608 5609 5611 5612 5612 5613 5613 5614 5614 5613 5613 5612 5612 5611 5609 5608 5607 5606 5605 5604 5603 5602 5601 5600 5599 5599 5598 5598 5598 5598 5597 5597 5597 5596 5596 5596 5596 5595 5595 5594 5593
5595 5597 5598 5599 5601 5601 5602 5603 5603 5603 5603 5603 5603 5602 5601 5600 5599 5598 5597 5596 5595 5594 5593 5592 5591 5590 5590 5589 5589 5588 5588 5588 5588 5588 5587 5587 5587 5587 5586 5586 5585 5585 5584
5586 5587 5589 5590 5591 5592 5592 5593 5593 5593 5593 5593 5592 5592 5591 5590 5589 5588 5587 5586 5585 5584 5583 5583 5582 5581 5580 5580 5579 5579 5579 5579 5578 5578 5578 5578 5577 5577 5577 5576 5575 5574 5573
5576 5578 5579 5580 5581 5581 5582 5582 5582 5583 5583 5582 5582 5581 5581 5580 5579 5578 5577 5576 5575 5575 5574 5573 5573 5572 5571 5571 5570 5570 5570 5569 5569 5568 5568 5568 5568 5567 5567 5566 5565 5564 5563
5567 5568 5569 5570 5571 5571 5572 5572 5572 5573 5572 5572 5572 5571 5571 5570 5569 5568 5567 5567 5566 5565 5565 5564 5563 5563 5562 5562 5561 5560 5560 5560 5559 5559 5558 5558 5558 5557 5556 5556 5555 5553 5552
5557 5558 5559 5560 5561 5561 5562 5562 5562 5562 5562 5562 5561 5561 5560 5560 5559 5558 5558 5557 5557 5556 5555 5555 5554 5553 5553 5552 5552 5551 5551 5550 5550 5549 5548 5548 5547 5547 5546 5545 5544 5542 5540
5548 5548 5549 5550 5551 5551 5552 5552 5552 5552 5552 5551 5551 5551 5550 5550 5549 5549 5548 5547 5546 5546 5545 5545 5544 5544 5543 5542 5542 5541 5541 5540 5539 5539 5538 5537 5536 5536 5535 5533 5532 5530 5529
5538 5539 5539 5540 5540 5541 5541 5541 5542 5542 5542 5541 5541 5540 5540 5540 5539 5538 5538 5537 5536 5536 5535 5534 5534 5533 5533 5532 5531 5531 5530 5530 5529 5528 5527 5526 5525 5524 5523 5522 5520 5519 5517
5528 5529 5529 5530 5530 5531 5531 5531 5531 5531 5531 5531 5530 5530 5529 5529 5529 5528 5527 5526 5526 5525 5524 5524 5523 5523 5522 5521 5521 5520 5519 5518 5518 5517 5516 5515 5514 5513 5511 5510 5508 5506 5504
5518 5519 5519 5520 5520 5521 5521 5521 5521 5521 5520 5520 5520 5519 5519 5518 5518 5517 5516 5516 5515 5514 5514 5513 5512 5511 5511 5510 5509 5508 5508 5507 5506 5505 5504 5503 5502 5500 5499 5497 5495 5493 5491
5507 5508 5509 5509 5510 5510 5510 5510 5510 5510 5510 5509 5509 5508 5508 5507 5507 5506 5505 5505 5504 5503 5502 5502 5501 5500 5499 5498 5497 5497 5496 5495 5494 5493 5491 5490 5489 5488 5486 5484 5482 5480 5478
5496 5497 5498 5498 5499 5499 5500 5500 5500 5499 5499 5499 5498 5497 5497 5496 5496 5495 5494 5493 5493 5492 5491 5490 5489 5488 5487 5486 5485 5484 5483 5482 5481 5480 5479 5478 5476 5475 5473 5471 5469 5467 5465
5485 5486 5487 5487 5488 5488 5489 5489 5489 5489 5488 5488 5487 5486 5486 5485 5484 5483 5483 5482 5481 5480 5479 5478 5477 5476 5475 5474 5473 5472 5470 5469 5468 5467 5465 5464 5463 5461 5459 5457 5455 5453 5451
5474 5475 5475 5476 5476 5477 5477 5478 5478 5477 5477 5476 5476 5475 5474 5474 5473 5472 5471 5470 5469 5468 5467 5465 5464 5463 5462 5461 5460 5459 5457 5456 5455 5453 5452 5450 5449 5447 5445 5443 5441 5439 5437
Wind_Speed
49 50 50 50 50 50 50 50 51 51 51 50 50 51 51 51 51 51 51 51 51 50 49 49 49 49 48 47 46 45 44 44 44 44 43 43 41 41 40 39 38 37 35
48 48 49 49 49 48 48 48 49 49 49 49 50 50 50 50 50 50 50 50 50 50 49 49 48 48 47 46 45 45 44 44 44 44 43 41 40 40 40 38 37 36 34
45 46 47 47 47 47 48 49 49 49 48 48 49 49 49 49 49 50 50 50 50 49 48 48 47 46 46 45 45 45 44 44 44 43 42 41 40 39 38 37 36 35 34
44 44 45 46 46 47 48 48 49 49 48 48 49 49 49 49 49 48 48 48 47 47 46 46 45 45 45 45 45 44 44 44 43 43 41 40 39 37 36 35 34 33 32
42 43 44 44 45 45 45 45 46 46 47 47 47 47 47 47 47 47 47 45 45 45 45 44 44 44 44 44 43 43 43 42 41 40 40 38 37 36 35 34 33 33 32
40 41 41 42 43 43 44 44 44 45 45 46 46 45 45 44 44 44 44 44 44 44 44 43 43 43 43 43 42 42 41 40 39 38 38 37 36 35 35 34 34 32 32
38 38 39 40 41 42 42 43 43 43 43 43 43 43 42 42 42 42 42 42 43 43 43 43 43 43 42 42 42 41 40 39 38 37 37 36 36 35 34 33 33 32 31
37 37 38 39 40 40 40 40 40 40 40 41 41 41 41 41 41 41 41 42 42 43 42 42 42 41 41 41 40 39 38 38 37 36 36 35 34 33 33 32 32 31 31
36 37 37 37 37 38 38 38 39 39 38 38 39 39 40 40 41 41 41 41 41 41 41 41 41 41 40 40 39 38 38 37 36 36 35 34 34 33 32 32 31 31 30
35 36 36 36 37 37 37 38 38 38 38 38 38 39 39 40 40 40 40 40 40 39 39 39 40 40 40 39 37 37 37 36 35 35 35 34 34 33 31 31 30 30 30
35 36 36 36 36 36 36 37 37 37 38 38 38 38 38 38 38 38 38 38 38 38 38 37 37 37 37 37 36 36 35 35 34 34 34 34 32 31 30 31 30 30 30
35 35 35 36 36 36 36 36 36 36 37 37 37 37 37 37 37 37 37 37 37 36 36 36 36 35 35 35 35 34 34 34 34 33 33 32 31 31 30 31 30 30 30
34 35 35 36 36 36 36 36 36 36 36 36 36 36 36 36 36 36 36 36 36 35 35 34 34 34 34 34 33 33 33 33 32 32 31 31 31 31 31 31 31 31 31
34 34 34 34 34 35 35 36 36 36 36 36 36 36 35 35 35 35 35 34 34 34 34 33 33 33 33 32 32 32 32 32 32 32 32 32 31 31 31 31 31 31 32
33 33 33 34 34 34 35 35 35 35 35 35 35 35 34 34 34 34 34 34 34 33 33 32 32 31 31 31 31 31 31 31 31 31 31 31 31 31 31 31 32 32 33
32 33 33 33 34 34 34 35 34 34 34 34 34 34 34 34 34 34 33 33 32 32 32 32 31 31 31 31 31 31 31 31 31 31 31 32 32 32 32 33 33 34 34
31 32 32 33 33 33 33 33 33 33 33 33 34 34 34 34 34 33 33 32 32 31 31 31 31 30 30 31 30 30 31 31 31 32 32 32 33 33 33 34 34 35 35
31 32 32 32 32 32 33 33 33 33 34 34 34 34 34 34 33 33 32 32 32 32 32 32 31 31 31 31 31 31 31 31 32 32 33 33 34 34 35 35 36 36 36
30 31 31 32 32 33 33 33 33 33 33 33 33 34 34 33 33 33 33 33 33 33 33 33 33 32 32 32 32 33 33 33 33 33 34 34 35 35 35 36 37 37 37
30 31 31 31 32 32 32 32 32 33 33 33 33 33 33 33 33 33 33 33 33 33 33 33 33 33 33 34 34 34 34 34 34 34 35 35 36 36 36 37 38 38 39
30 30 31 31 31 31 32 32 32 32 33 33 33 34 34 33 33 34 34 34 33 33 34 34 34 35 35 35 35 35 35 35 35 36 36 37 37 37 37 38 39 39 40
31 31 31 31 32 32 32 32 32 32 32 33 33 33 33 34 34 34 34 34 34 34 34 34 35 35 36 36 36 36 36 36 37 37 38 38 38 38 38 39 40 40 40
32 32 32 32 32 32 32 32 32 32 32 33 33 34 34 34 34 34 34 34 34 34 35 35 35 35 36 36 37 37 37 37 38 38 38 39 39 39 40 40 40 40 41
31 32 32 32 32 33 33 33 33 33 33 33 33 33 34 34 34 34 35 35 35 36 36 36 36 36 37 37 37 37 38 38 38 39 39 40 40 41 41 42 42 41 42
32 32 33 33 33 33 33 33 33 33 34 34 34 33 34 34 34 35 35 36 36 37 37 37 37 37 37 37 37 38 38 38 39 40 40 40 41 41 42 42 42 42 43
32 33 33 33 33 33 33 33 33 34 34 34 34 35 35 35 36 36 37 37 37 37 37 38 37 37 37 37 38 38 39 39 40 40 41 41 41 41 42 42 42 42 42
Wind_Direction
245 247 249 251 253 254 255 257 260 262 264 265 267 269 270 271 273 274 277 279 279 280 281 281 282 282 283 283 282 282 283 284 285 285 285 285 284 284 285 284 285 286 287
246 248 250 251 253 255 256 258 260 262 263 266 267 268 270 271 273 274 275 277 277 278 279 280 280 280 281 280 280 281 282 283 283 284 284 284 283 284 283 283 283 284 285
246 247 248 250 252 253 254 256 259 261 262 265 266 268 270 271 273 274 275 276 276 277 278 279 279 279 279 280 280 281 281 281 282 283 283 282 282 282 282 282 282 282 283
246 247 248 249 251 252 254 256 258 260 262 265 267 269 270 271 273 274 275 276 276 277 278 278 279 279 279 279 280 280 280 280 281 281 280 280 280 280 280 280 280 281 281
245 247 248 250 251 253 255 257 259 261 264 266 268 269 270 271 273 274 275 276 276 277 278 278 278 278 278 278 278 279 279 279 279 279 278 278 278 279 279 279 278 279 280
245 247 249 250 252 253 255 258 260 262 264 266 267 269 270 272 273 274 275 275 276 277 277 277 277 277 277 277 277 277 277 277 277 277 276 276 276 277 277 278 277 278 277
245 247 249 251 253 254 256 258 260 262 264 266 267 269 271 272 273 275 276 277 276 276 276 277 277 277 277 277 277 276 276 275 275 275 274 275 276 276 276 277 276 276 276
246 248 250 252 253 255 257 259 260 262 264 266 268 269 271 272 274 276 277 277 277 277 276 276 276 277 277 277 277 275 274 274 273 273 274 275 274 274 274 275 275 276 276
245 247 249 251 253 255 257 258 260 262 265 267 268 270 272 273 275 276 277 277 277 277 276 276 275 275 276 275 274 273 273 272 272 272 273 273 273 273 273 273 274 275 275
245 248 250 251 253 255 257 259 261 263 265 267 269 270 272 274 275 276 277 277 277 277 276 275 275 274 273 273 273 273 272 271 271 272 273 272 272 271 272 273 274 274 276
246 249 250 252 253 255 258 260 262 264 266 268 270 271 273 274 274 275 277 277 277 277 276 276 275 274 273 272 272 272 271 271 271 272 272 271 270 269 270 272 273 275 276
247 249 250 252 254 256 259 260 262 264 266 268 269 271 272 274 275 276 276 276 276 277 276 276 275 273 272 271 271 270 271 271 272 273 272 270 269 269 270 272 273 275 277
249 251 252 253 255 257 258 260 262 265 267 268 270 272 273 275 275 276 276 276 276 276 276 275 274 274 272 272 271 271 272 272 273 273 271 270 269 269 271 272 273 275 277
251 251 253 254 256 257 259 260 262 265 267 269 270 272 273 274 275 276 276 276 276 275 275 275 274 274 273 272 271 272 272 272 273 272 271 270 270 270 271 273 274 276 278
250 251 253 254 256 258 260 262 263 266 268 269 270 271 272 273 274 275 275 275 275 274 274 274 273 273 272 272 271 271 271 271 272 272 271 271 270 270 272 274 276 277 279
252 253 254 256 257 259 261 263 264 266 267 268 269 270 272 274 274 274 275 275 274 273 272 272 272 272 272 272 272 271 271 271 271 271 271 271 271 272 273 275 277 278 280
252 254 255 257 258 260 262 263 264 266 267 268 269 270 272 273 274 274 273 273 273 273 272 272 272 272 272 272 272 272 271 271 270 270 271 271 272 272 274 276 277 279 281
254 255 256 257 259 260 262 264 265 266 268 269 269 270 270 271 272 273 273 272 272 271 271 272 272 272 272 272 272 272 271 271 271 271 271 272 272 273 274 276 278 279 281
256 257 258 259 260 261 262 264 265 266 267 268 269 270 270 271 272 272 272 272 272 271 271 271 272 272 272 272 272 271 272 272 271 272 272 273 274 275 275 276 278 279 280
258 259 259 261 261 262 263 264 264 265 267 268 269 270 271 272 272 272 272 272 272 271 271 271 272 272 272 272 272 272 272 272 272 272 273 274 275 276 276 277 278 280 281
259 259 260 261 262 263 264 264 265 266 267 268 269 270 271 271 272 272 273 273 272 272 272 272 272 272 272 272 273 273 273 272 272 273 274 275 276 276 277 278 279 280 282
258 260 261 261 262 264 265 265 266 267 269 269 270 270 271 271 272 272 273 273 273 273 273 273 273 273 273 272 273 273 273 273 273 274 275 275 276 277 278 279 280 281 282
259 260 261 263 264 264 265 266 268 269 270 271 271 271 272 272 272 273 273 273 273 274 274 274 274 274 274 274 273 273 273 273 274 274 275 276 277 277 278 279 281 281 282
260 260 261 263 264 265 266 267 269 271 272 272 272 272 273 273 274 274 275 274 274 275 276 276 275 275 275 274 274 274 274 274 274 275 276 277 278 278 279 280 280 281 282
263 263 263 263 264 265 266 268 269 271 272 272 273 273 273 274 274 275 276 275 275 275 276 276 275 275 275 275 275 275 275 275 275 276 277 277 278 279 279 280 280 281 282
264 265 265 264 263 264 266 267 269 271 273 273 273 273 274 274 275 276 276 276 276 276 276 275 275 274 275 275 276 276 276 276 276 276 277 278 278 279 279 279 280 281 282